SL-8 R/B

基本信息
目录编号:
5907
目录名称:
SL-8 R/B
国际标识:
1972-019B
轨道中心:
EARTH
物体状态:
在轨
发射日期:
1972-03-25 UTC
国别:
俄罗斯(独联体) (CIS)
轨道信息
数据来源: 国际轨道数据
星历时间: 2026-09-10T21:31:57+0800
半长轴: 7553.426km
偏心率: 0.0021047
轨道倾角: 82.974°
近地点辐角: 359.833°
升交点赤经: 182.156°
平近点角: 173.502°
近地点: 1159.391km
远地点: 1191.187km
周期: 108.887分钟
每日圈数: 13.224731
详细信息
发射场:
PKMTR
轨道高度:
LEO
数据来源:
AOE Integration Group
参考系:
TEME
时间系统:
UTC
历元类型:
SGP4
2D轨道图
3D轨道图
轨道高度分析图
轨道倾角分析图
轨道综合分析图
查看轨道综合分析图